Wendover, UT

3:16 AM MDT on July 27, 2017 (GMT -0600)
Wendover

Weather History for KENV - January, 2013

Change the Weather History Date:

Wednesday, January 30, 2013

  Actual Average Record
Temperature  
Mean Temperature 40 °F -  
Max Temperature 46 °F 35 °F 59 °F (2003)
Min Temperature 35 °F 18 °F -5 °F (2002)
Degree Days  
Heating Degree Days 24    
Moisture  
Dew Point 28 °F    
Average Humidity 59    
Maximum Humidity 75    
Minimum Humidity 50    
Precipitation  
Precipitation 0.00 in - - ()
Sea Level Pressure  
Sea Level Pressure 30.19 in    
Wind  
Wind Speed 11 mph (NW)    
Max Wind Speed 23 mph    
Max Gust Speed 33 mph    
Visibility 10 miles    
Events      
Averages and records for this station are not official NWS values.
T = Trace of Precipitation, MM = Missing Value Source: NWS Daily Summary

Daily Weather History Graph

Daily Weather History Graph

Search for Another Location

Airport or City:

Trip Planner

Search our weather history database for the weather conditions in past years. The results will help you decide how hot, cold, wet, or windy it might be!

Date:

Astronomy

Jan. 30, 2013 Rise Set
Actual Time 7:47 AM MST 5:51 PM MST
Civil Twilight 7:18 AM MST 6:20 PM MST
Nautical Twilight 6:45 AM MST 6:53 PM MST
Astronomical Twilight 6:13 AM MST 7:25 PM MST
Moon 9:56 PM MST (1/30) 9:16 AM MST (1/30)
Length of Visible Light 11h 02m
Length of Day
10h 04m
Waning Gibbous, 87% of the Moon is Illuminated
Jan 30
Waning Gibbous
Feb 3
Last Quarter
Feb 10
New
Feb 17
First Quarter
Feb 25
Full

Hourly Weather History & Observations

Time (MST) Temp. Windchill Dew Point Humidity Pressure Visibility Wind Dir Wind Speed Gust Speed Precip Events Conditions
12:15 AM 35.6 °F 25.5 °F 23.0 °F 60% 30.18 in 10.0 mi NW 17.3 mph 24.2 mph N/A   Clear
12:35 AM 37.4 °F 27.5 °F 23.0 °F 56% 30.19 in 10.0 mi NNW 18.4 mph 33.4 mph N/A   Scattered Clouds
12:55 AM 37.4 °F 29.3 °F 24.8 °F 60% 30.18 in 10.0 mi West 12.7 mph 23.0 mph N/A   Overcast
1:15 AM 37.4 °F 32.8 °F 24.8 °F 60% 30.16 in 10.0 mi ESE 5.8 mph 19.6 mph N/A   Scattered Clouds
1:35 AM 39.2 °F 33.0 °F 24.8 °F 56% 30.18 in 10.0 mi WNW 9.2 mph - N/A   Scattered Clouds
1:55 AM 37.4 °F 32.8 °F 24.8 °F 60% 30.18 in 10.0 mi South 5.8 mph - N/A   Mostly Cloudy
2:15 AM 37.4 °F 29.3 °F 24.8 °F 60% 30.17 in 10.0 mi South 12.7 mph - N/A   Overcast
2:35 AM 37.4 °F 30.8 °F 24.8 °F 60% 30.18 in 10.0 mi SSW 9.2 mph - N/A   Overcast
2:55 AM 37.4 °F 30.8 °F 24.8 °F 60% 30.17 in 10.0 mi SW 9.2 mph - N/A   Overcast
3:15 AM 37.4 °F 31.4 °F 24.8 °F 60% 30.17 in 10.0 mi South 8.1 mph - N/A   Overcast
3:35 AM 37.4 °F 32.8 °F 24.8 °F 60% 30.17 in 10.0 mi SW 5.8 mph - N/A   Overcast
3:55 AM 37.4 °F - 24.8 °F 60% 30.16 in 10.0 mi Calm Calm - N/A   Overcast
4:15 AM 37.4 °F 31.4 °F 24.8 °F 60% 30.16 in 10.0 mi NW 8.1 mph - N/A   Mostly Cloudy
4:55 AM 39.2 °F 30.2 °F 26.6 °F 61% 30.14 in 10.0 mi NW 17.3 mph - N/A   Partly Cloudy
5:15 AM 37.4 °F 29.8 °F 28.4 °F 70% 30.14 in 10.0 mi NNW 11.5 mph - N/A   Partly Cloudy
5:35 AM 37.4 °F 32.8 °F 26.6 °F 65% 30.14 in 10.0 mi NW 5.8 mph - N/A   Scattered Clouds
5:55 AM 35.6 °F 29.2 °F 28.4 °F 75% 30.15 in 10.0 mi NNW 8.1 mph - N/A   Overcast
6:15 AM 37.4 °F 30.8 °F 28.4 °F 70% 30.14 in 10.0 mi North 9.2 mph - N/A   Overcast
6:35 AM 39.2 °F 34.2 °F 28.4 °F 65% 30.14 in 10.0 mi North 6.9 mph - N/A   Overcast
6:55 AM 42.8 °F 37.0 °F 26.6 °F 53% 30.14 in 10.0 mi West 10.4 mph - N/A   Overcast
7:15 AM 39.2 °F 35.9 °F 26.6 °F 61% 30.16 in 10.0 mi NW 4.6 mph - N/A   Overcast
7:35 AM 39.2 °F 33.0 °F 28.4 °F 65% 30.17 in 10.0 mi North 9.2 mph - N/A   Overcast
7:55 AM 39.2 °F 32.5 °F 28.4 °F 65% 30.18 in 10.0 mi North 10.4 mph - N/A   Overcast
8:15 AM 41.0 °F 34.7 °F 28.4 °F 61% 30.18 in 10.0 mi North 10.4 mph - N/A   Overcast
8:35 AM 39.2 °F 31.6 °F 28.4 °F 65% 30.20 in 10.0 mi North 12.7 mph - N/A   Overcast
8:55 AM 41.0 °F 33.5 °F 28.4 °F 61% 30.20 in 10.0 mi NNE 13.8 mph - N/A   Overcast
9:15 AM 42.8 °F 37.5 °F 28.4 °F 57% 30.20 in 10.0 mi NNW 9.2 mph - N/A   Overcast
9:35 AM 42.8 °F 36.6 °F 28.4 °F 57% 30.19 in 10.0 mi NNW 11.5 mph 18.4 mph N/A   Overcast
9:55 AM 42.8 °F 37.0 °F 28.4 °F 57% 30.19 in 10.0 mi NNW 10.4 mph - N/A   Overcast
10:15 AM 42.8 °F 37.5 °F 28.4 °F 57% 30.19 in 10.0 mi NW 9.2 mph - N/A   Overcast
10:35 AM 42.8 °F 35.1 °F 28.4 °F 57% 30.18 in 10.0 mi WNW 16.1 mph - N/A   Mostly Cloudy
10:55 AM 42.8 °F 34.3 °F 28.4 °F 57% 30.19 in 10.0 mi WNW 19.6 mph - N/A   Clear
11:15 AM 42.8 °F 35.1 °F 28.4 °F 57% 30.20 in 10.0 mi NW 16.1 mph 19.6 mph N/A   Clear
11:35 AM 44.6 °F 35.9 °F 28.4 °F 53% 30.19 in 10.0 mi WNW 23.0 mph 29.9 mph N/A   Clear
11:55 AM 44.6 °F 37.2 °F 28.4 °F 53% 30.19 in 10.0 mi WNW 17.3 mph - N/A   Clear
12:15 PM 46.4 °F 40.4 °F 30.2 °F 53% 30.20 in 10.0 mi NW 13.8 mph - N/A   Mostly Cloudy
12:35 PM 46.4 °F 40.7 °F 30.2 °F 53% 30.19 in 10.0 mi NW 12.7 mph - N/A   Mostly Cloudy
12:55 PM 46.4 °F 41.5 °F 30.2 °F 53% 30.19 in 10.0 mi North 10.4 mph - N/A   Scattered Clouds
1:15 PM 46.4 °F 40.4 °F 30.2 °F 53% 30.20 in 10.0 mi NNE 13.8 mph - N/A   Mostly Cloudy
1:35 PM 44.6 °F 37.8 °F 30.2 °F 57% 30.20 in 10.0 mi NNE 15.0 mph - N/A   Overcast
1:55 PM 44.6 °F 39.7 °F 30.2 °F 57% 30.20 in 10.0 mi NNW 9.2 mph - N/A   Overcast
2:15 PM 44.6 °F 40.2 °F 30.2 °F 57% 30.20 in 10.0 mi NNW 8.1 mph - N/A   Overcast
2:35 PM 46.4 °F 42.9 °F 30.2 °F 53% 30.20 in 10.0 mi WNW 6.9 mph - N/A   Overcast
2:55 PM 44.6 °F 40.2 °F 33.8 °F 66% 30.20 in 10.0 mi NNW 8.1 mph - N/A   Mostly Cloudy
3:15 PM 44.6 °F 41.4 °F 30.2 °F 57% 30.20 in 10.0 mi NNW 5.8 mph - N/A   Mostly Cloudy
3:35 PM 46.4 °F 42.9 °F 30.2 °F 53% 30.20 in 10.0 mi NNW 6.9 mph - N/A   Overcast
3:55 PM 46.4 °F 44.3 °F 30.2 °F 53% 30.20 in 10.0 mi NW 4.6 mph - N/A   Mostly Cloudy
4:15 PM 46.4 °F 41.9 °F 30.2 °F 53% 30.20 in 10.0 mi NNW 9.2 mph - N/A   Mostly Cloudy
4:35 PM 46.4 °F 42.4 °F 30.2 °F 53% 30.20 in 10.0 mi NNW 8.1 mph - N/A   Mostly Cloudy
5:15 PM 46.4 °F 41.9 °F 28.4 °F 50% 30.19 in 10.0 mi North 9.2 mph 20.7 mph N/A   Partly Cloudy
5:35 PM 44.6 °F 38.4 °F 28.4 °F 53% 30.20 in 10.0 mi WNW 12.7 mph - N/A   Clear
5:55 PM 42.8 °F 37.5 °F 28.4 °F 57% 30.20 in 10.0 mi WNW 9.2 mph - N/A   Clear
6:15 PM 39.2 °F 32.0 °F 28.4 °F 65% 30.21 in 10.0 mi WNW 11.5 mph - N/A   Clear
6:35 PM 37.4 °F 31.4 °F 28.4 °F 70% 30.21 in 10.0 mi NNW 8.1 mph - N/A   Partly Cloudy
6:55 PM 41.0 °F 34.3 °F 28.4 °F 61% 30.22 in 10.0 mi NW 11.5 mph - N/A   Mostly Cloudy
7:15 PM 41.0 °F 33.9 °F 28.4 °F 61% 30.22 in 10.0 mi NW 12.7 mph - N/A   Partly Cloudy
7:35 PM 39.2 °F 32.5 °F 28.4 °F 65% 30.22 in 10.0 mi NW 10.4 mph - N/A   Clear
7:55 PM 41.0 °F 33.9 °F 26.6 °F 57% 30.22 in 10.0 mi NW 12.7 mph - N/A   Clear
8:15 PM 42.8 °F 34.3 °F 26.6 °F 53% 30.22 in 10.0 mi WNW 19.6 mph - N/A   Clear
8:35 PM 42.8 °F 35.1 °F 26.6 °F 53% 30.22 in 10.0 mi NNW 16.1 mph - N/A   Clear
8:55 PM 42.8 °F 35.8 °F 26.6 °F 53% 30.23 in 10.0 mi NNW 13.8 mph - N/A   Clear
9:15 PM 42.8 °F 34.0 °F 26.6 °F 53% 30.22 in 10.0 mi WNW 20.7 mph 26.5 mph N/A   Clear
9:35 PM 42.8 °F 39.3 °F 26.6 °F 53% 30.22 in 10.0 mi NW 5.8 mph - N/A   Clear
9:55 PM 41.0 °F 36.4 °F 26.6 °F 57% 30.24 in 10.0 mi South 6.9 mph - N/A   Clear
10:15 PM 39.2 °F 33.0 °F 26.6 °F 61% 30.24 in 10.0 mi SW 9.2 mph - N/A   Partly Cloudy
10:35 PM 39.2 °F - 26.6 °F 61% 30.24 in 10.0 mi Calm Calm - N/A   Mostly Cloudy
10:55 PM 39.2 °F 32.5 °F 26.6 °F 61% 30.24 in 10.0 mi SW 10.4 mph - N/A   Overcast
11:15 PM 39.2 °F 33.6 °F 26.6 °F 61% 30.25 in 10.0 mi WSW 8.1 mph - N/A   Overcast
11:35 PM 39.2 °F - 26.6 °F 61% 30.25 in 10.0 mi Calm Calm - N/A   Overcast
11:55 PM 37.4 °F - 26.6 °F 65% 30.26 in 10.0 mi Calm Calm - N/A   Overcast